CW6623 Weather Reports


Display with metric or nautical units.
time (UTC)temp
F
wind
direction
speed
MPH
gust
MPH
rain 1hr
in
rain 24hr
in
rain mn
in
humidity
%
barometer
mb
20260505214336 60 258 2.0 6.0 0.00 0.00 0.00 66 1012.6
20260505213401 60 240 2.0 7.0 0.00 0.00 0.00 68 1012.6
20260505212339 60 224 0.0 4.0 0.00 0.00 0.00 68 1012.6
20260505211339 61 232 1.0 5.0 0.00 0.00 0.00 66 1012.6
20260505210322 60 192 2.0 4.0 0.00 0.00 0.00 66 1012.5
20260505205348 60 247 1.0 9.0 0.00 0.00 0.00 67 1012.4
20260505204407 61 272 3.0 7.0 0.00 0.00 0.00 66 1012.4
20260505203345 60 5 1.0 4.0 0.00 0.00 0.00 67 1012.4
20260505202342 60 302 0.0 7.0 0.00 0.00 0.00 69 1012.6
20260505201338 60 269 1.0 6.0 0.00 0.00 0.00 69 1012.6
20260505200404 59 22 2.0 5.0 0.00 0.00 0.00 69 1012.6
20260505195338 58 333 2.0 6.0 0.00 0.00 0.00 73 1012.7
20260505194400 58 267 2.0 5.0 0.00 0.00 0.00 74 1012.9
20260505193339 57 235 2.0 4.0 0.00 0.00 0.00 76 1012.9
20260505192342 57 257 3.0 10.0 0.00 0.00 0.00 75 1012.8
20260505191339 57 355 0.0 1.0 0.00 0.00 0.00 76 1012.7
20260505190346 57 327 1.0 3.0 0.00 0.00 0.00 75 1012.7
20260505185343 57 5 1.0 4.0 0.00 0.00 0.00 76 1012.6
20260505184340 57 329 1.0 3.0 0.00 0.00 0.00 75 1012.7
20260505183335 57 298 0.0 0.0 0.00 0.00 0.00 76 1012.7
20260505182336 57 203 0.0 1.0 0.00 0.00 0.00 76 1012.7
20260505181331 56 202 0.0 3.0 0.00 0.00 0.00 77 1012.6
20260505180329 56 257 0.0 4.0 0.00 0.00 0.00 78 1012.6
20260505175331 56 280 1.0 5.0 0.00 0.00 0.00 77 1012.6
20260505174327 56 277 0.0 2.0 0.00 0.00 0.00 77 1012.3
20260505173325 56 250 3.0 7.0 0.00 0.00 0.00 76 1012.3
20260505172325 56 279 1.0 7.0 0.00 0.00 0.00 76 1012.1
20260505171322 56 257 2.0 4.0 0.00 0.00 0.00 76 1012.1
20260505170348 55 279 2.0 7.0 0.00 0.00 0.00 75 1012.1
20260505165346 55 291 2.0 7.0 0.00 0.00 0.00 76 1012.1
20260505164323 55 284 1.0 5.0 0.00 0.00 0.00 76 1012.0
20260505163349 55 230 3.0 5.0 0.00 0.00 0.00 76 1012.0
20260505162347 55 5 1.0 5.0 0.00 0.00 0.00 76 1012.1
20260505161347 55 269 3.0 4.0 0.00 0.00 0.00 75 1012.0
20260505160345 55 360 1.0 4.0 0.00 0.00 0.00 76 1012.0
20260505153325 54 248 0.0 0.0 0.00 0.00 0.00 79 1011.6
20260505152322 54 248 0.0 0.0 0.00 0.00 0.00 79 1011.6
20260505151347 53 188 0.0 0.0 0.00 0.00 0.00 79 1011.4
20260505150347 53 190 1.0 4.0 0.00 0.00 0.00 79 1011.4
20260505140339 51 187 0.0 1.0 0.00 0.00 0.00 86 1011.2
20260505124355 50 186 0.0 1.0 0.00 0.00 0.00 86 1011.1
20260505123331 50 184 1.0 3.0 0.00 0.00 0.00 86 1011.1
20260505122337 50 187 0.0 0.0 0.00 0.00 0.00 86 1011.0
20260505121337 50 187 0.0 0.0 0.00 0.00 0.00 85 1011.0
20260505120334 50 188 1.0 3.0 0.00 0.00 0.00 85 1011.0
20260505115335 50 225 0.0 0.0 0.00 0.00 0.00 86 1011.0
20260505114337 50 248 0.0 0.0 0.00 0.00 0.00 85 1011.1
20260505113338 50 248 0.0 0.0 0.00 0.00 0.00 85 1011.1
20260505112322 50 248 0.0 0.0 0.00 0.00 0.00 84 1011.1
20260505111323 50 249 0.0 0.0 0.00 0.00 0.00 83 1011.0
20260505110347 50 249 0.0 0.0 0.00 0.00 0.00 82 1011.0
20260505101324 51 272 0.0 0.0 0.00 0.00 0.00 79 1011.5
20260505100401 51 272 0.0 0.0 0.00 0.00 0.00 79 1011.5
20260505095407 51 272 0.0 4.0 0.00 0.00 0.00 78 1011.3
20260505094344 51 244 2.0 3.0 0.00 0.00 0.00 79 1011.5
20260505093324 51 248 0.0 2.0 0.00 0.00 0.00 76 1011.5
20260505092323 51 258 1.0 4.0 0.00 0.00 0.00 75 1011.5
20260505091326 51 263 0.0 3.0 0.00 0.00 0.00 76 1011.6
20260505090328 51 263 0.0 0.0 0.00 0.00 0.00 77 1011.6
20260505085325 52 264 0.0 0.0 0.00 0.00 0.00 78 1011.8
20260505084324 52 265 0.0 0.0 0.00 0.00 0.00 78 1012.0
20260505083324 52 265 0.0 0.0 0.00 0.00 0.00 77 1012.0
20260505082326 52 264 0.0 0.0 0.00 0.00 0.00 76 1012.1
20260505081323 52 265 0.0 0.0 0.00 0.00 0.00 76 1012.2
20260505080326 52 265 0.0 3.0 0.00 0.00 0.00 76 1012.2
20260505075326 52 281 0.0 2.0 0.00 0.00 0.00 78 1012.2
20260505074350 52 355 0.0 0.0 0.00 0.00 0.00 79 1012.2
20260505073331 52 355 0.0 0.0 0.00 0.00 0.00 80 1012.2
20260505072332 52 331 0.0 0.0 0.00 0.00 0.00 81 1012.1
20260505071329 52 344 0.0 0.0 0.00 0.00 0.00 81 1011.9
20260505070327 52 344 0.0 0.0 0.00 0.00 0.00 80 1011.9
20260505065355 52 344 0.0 0.0 0.00 0.00 0.00 80 1011.7
20260505064334 52 344 0.0 0.0 0.00 0.00 0.00 80 1011.7
20260505063331 53 344 0.0 0.0 0.00 0.00 0.00 79 1011.7
20260505062359 53 344 0.0 0.0 0.00 0.00 0.00 79 1011.6
20260505061339 53 344 0.0 0.0 0.00 0.00 0.00 79 1011.6
20260505060336 53 355 0.0 0.0 0.00 0.00 0.00 78 1011.6
20260505055335 53 277 0.0 4.0 0.00 0.00 0.00 78 1011.7
20260505054338 53 277 0.0 3.0 0.00 0.00 0.00 78 1012.0
20260505053337 53 28 0.0 0.0 0.00 0.00 0.00 78 1012.0
20260505052335 53 266 0.0 0.0 0.00 0.00 0.00 77 1012.1
20260505051336 53 264 0.0 0.0 0.00 0.00 0.00 77 1012.2
20260505050336 53 264 0.0 0.0 0.00 0.00 0.00 77 1012.2
20260505041327 54 266 0.0 0.0 0.00 0.00 0.00 74 1011.6
20260505040326 54 265 0.0 0.0 0.00 0.00 0.00 73 1011.6
20260505035325 54 259 0.0 0.0 0.00 0.00 0.00 72 1011.5
20260505034349 54 260 0.0 0.0 0.00 0.00 0.00 72 1011.0
20260505033349 55 259 0.0 0.0 0.00 0.00 0.00 72 1011.1
20260505032331 55 259 0.0 0.0 0.00 0.00 0.00 71 1011.1
20260505031355 56 259 0.0 0.0 0.00 0.00 0.00 70 1011.1
20260505030335 56 259 0.0 4.0 0.00 0.00 0.00 69 1011.1
20260505025358 57 269 0.0 1.0 0.00 0.00 0.00 68 1011.0
20260505024336 57 267 0.0 3.0 0.00 0.00 0.00 67 1011.0
20260505023334 57 360 2.0 4.0 0.00 0.00 0.00 67 1011.0
20260505022335 57 268 0.0 4.0 0.00 0.00 0.00 66 1011.0
20260505021403 58 248 1.0 3.0 0.00 0.00 0.00 66 1011.2
20260505020339 58 300 0.0 6.0 0.00 0.00 0.00 65 1011.2
20260505015337 58 273 2.0 5.0 0.00 0.00 0.00 65 1011.1
20260505014338 59 20 1.0 3.0 0.00 0.00 0.00 65 1011.0
20260505013336 59 360 2.0 9.0 0.00 0.00 0.00 64 1011.0
20260505012335 59 292 1.0 7.0 0.00 0.00 0.00 63 1011.1
20260505011337 60 255 2.0 6.0 0.00 0.00 0.00 62 1011.1
20260505010336 60 80 2.0 6.0 0.00 0.00 0.00 62 1011.1
20260505005334 60 244 1.0 4.0 0.00 0.00 0.00 61 1011.2
20260505004333 59 34 2.0 4.0 0.00 0.00 0.00 61 1011.5
20260505003340 59 329 1.0 3.0 0.00 0.00 0.00 62 1011.5
20260505002330 59 264 2.0 4.0 0.00 0.00 0.00 62 1011.4
20260505001330 60 265 0.0 4.0 0.00 0.00 0.00 63 1011.2
20260505000331 60 343 2.0 9.0 0.00 0.00 0.00 61 1011.2
20260504235330 60 251 1.0 7.0 0.00 0.00 0.00 61 1011.2
20260504234329 60 43 2.0 6.0 0.00 0.00 0.00 62 1011.3
20260504233328 60 113 3.0 10.0 0.00 0.00 0.00 62 1011.3
20260504232414 60 265 2.0 3.0 0.00 0.00 0.00 62 1011.3